| time (UTC) | temp C | wind direction | speed KPH | gust KPH | rain 1hr cm | rain 24hr cm | rain mn cm | humidity % | barometer mb |
| 20260507114331 | 21 | 292 | 0.0 | 6.4 | 0.00 | 1.14 | 0.00 | 92 | 1020.1 |
| 20260507112828 | 21 | 210 | 0.0 | 4.8 | 0.00 | 1.14 | 0.00 | 92 | 1020.2 |
| 20260507111328 | 21 | 224 | 0.0 | 3.2 | 0.00 | 1.14 | 0.00 | 90 | 1020.3 |
| 20260507105827 | 21 | 277 | 0.0 | 6.4 | 0.00 | 1.14 | 0.00 | 88 | 1020.5 |
| 20260507104328 | 21 | 322 | 0.0 | 3.2 | 0.00 | 1.14 | 0.00 | 90 | 1020.6 |
| 20260507102828 | 21 | 217 | 0.0 | 4.8 | 0.00 | 1.14 | 0.00 | 90 | 1020.8 |
| 20260507101932 | 21 | 321 | 0.0 | 4.8 | 0.00 | 1.22 | 1.19 | 90 | 1021.1 |
| 20260507101454 | 21 | 267 | 0.0 | 4.8 | 0.00 | 1.14 | 0.00 | 90 | 1020.9 |
| 20260507094328 | 21 | 135 | 0.0 | 4.8 | 0.00 | 1.40 | 1.19 | 91 | 1021.0 |
| 20260507092828 | 22 | 164 | 0.0 | 4.8 | 0.00 | 1.60 | 1.19 | 91 | 1021.1 |
| 20260507091328 | 22 | 157 | 0.0 | 3.2 | 0.00 | 1.68 | 1.19 | 89 | 1021.0 |
| 20260507085828 | 22 | 224 | 0.0 | 4.8 | 0.00 | 2.21 | 1.19 | 89 | 1021.3 |
| 20260507084328 | 22 | 303 | 0.0 | 3.2 | 0.00 | 2.36 | 1.19 | 91 | 1021.5 |
| 20260507083530 | 22 | 135 | 0.0 | 3.2 | 0.00 | 2.36 | 1.19 | 92 | 1021.1 |
| 20260507081328 | 22 | 219 | 0.0 | 3.2 | 0.00 | 2.36 | 1.19 | 92 | 1021.0 |
| 20260507080519 | 22 | 261 | 0.0 | 3.2 | 0.00 | 2.36 | 1.19 | 91 | 1020.9 |
| 20260507074329 | 22 | 193 | 0.0 | 3.2 | 0.00 | 2.36 | 1.19 | 89 | 1021.1 |
| 20260507072828 | 22 | 110 | 0.0 | 4.8 | 0.00 | 2.36 | 1.19 | 88 | 1020.8 |
| 20260507071328 | 23 | 166 | 0.0 | 4.8 | 0.00 | 2.36 | 1.19 | 86 | 1020.8 |
| 20260507071229 | 23 | 298 | 0.0 | 4.8 | 0.00 | 2.36 | 1.19 | 84 | 1020.4 |
| 20260507064328 | 23 | 193 | 1.6 | 4.8 | 0.00 | 2.36 | 1.19 | 84 | 1020.4 |
| 20260507064223 | 24 | 164 | 0.0 | 3.2 | 0.00 | 2.36 | 1.19 | 86 | 1020.3 |
| 20260507061328 | 24 | 269 | 0.0 | 3.2 | 0.00 | 2.36 | 1.19 | 87 | 1020.1 |
| 20260507060539 | 24 | 309 | 0.0 | 1.6 | 0.00 | 2.36 | 1.19 | 87 | 1020.1 |
| 20260507054328 | 24 | 297 | 0.0 | 3.2 | 0.00 | 2.36 | 1.19 | 85 | 1019.9 |
| 20260507052828 | 24 | 293 | 0.0 | 3.2 | 0.00 | 2.36 | 1.19 | 87 | 1019.9 |
| 20260507051329 | 24 | 297 | 0.0 | 3.2 | 0.00 | 2.36 | 1.19 | 86 | 1019.8 |
| 20260507045829 | 25 | 309 | 0.0 | 3.2 | 0.00 | 2.36 | 1.19 | 90 | 1019.6 |
| 20260507044329 | 25 | 296 | 0.0 | 8.0 | 0.00 | 2.36 | 1.19 | 87 | 1019.4 |
| 20260507042828 | 26 | 278 | 1.6 | 6.4 | 0.00 | 2.36 | 1.19 | 83 | 1019.1 |
| 20260507041328 | 27 | 295 | 0.0 | 8.0 | 0.00 | 2.36 | 1.19 | 82 | 1018.7 |
| 20260507040521 | 27 | 286 | 1.6 | 6.4 | 0.00 | 2.36 | 1.19 | 79 | 1018.6 |
| 20260507034328 | 28 | 282 | 3.2 | 4.8 | 0.00 | 2.36 | 1.19 | 77 | 1018.2 |
| 20260507033534 | 27 | 273 | 3.2 | 8.0 | 0.00 | 2.36 | 1.19 | 78 | 1018.3 |
| 20260507032030 | 27 | 255 | 0.0 | 6.4 | 0.00 | 2.36 | 1.19 | 79 | 1018.4 |
| 20260507030533 | 29 | 263 | 3.2 | 6.4 | 0.00 | 2.36 | 1.19 | 71 | 1018.1 |
| 20260507025032 | 28 | 272 | 0.0 | 6.4 | 0.00 | 2.36 | 1.19 | 77 | 1018.0 |
| 20260507023539 | 27 | 285 | 0.0 | 4.8 | 0.00 | 2.36 | 1.19 | 73 | 1017.9 |
| 20260507022035 | 27 | 272 | 1.6 | 9.7 | 0.00 | 2.36 | 1.19 | 78 | 1017.9 |
| 20260507020536 | 29 | 259 | 3.2 | 11.3 | 0.00 | 2.36 | 1.19 | 73 | 1018.0 |
| 20260507014330 | 31 | 267 | 3.2 | 9.7 | 0.00 | 2.36 | 1.19 | 71 | 1017.9 |
| 20260507012830 | 30 | 283 | 1.6 | 6.4 | 0.00 | 2.36 | 1.19 | 69 | 1018.0 |
| 20260507011328 | 30 | 277 | 3.2 | 8.0 | 0.00 | 2.36 | 1.19 | 68 | 1018.1 |
| 20260507005827 | 30 | 278 | 3.2 | 6.4 | 0.00 | 2.36 | 1.19 | 68 | 1018.1 |
| 20260507005038 | 29 | 291 | 3.2 | 8.0 | 0.00 | 2.36 | 1.19 | 72 | 1018.3 |
| 20260507002828 | 28 | 274 | 3.2 | 6.4 | 0.00 | 2.36 | 1.19 | 79 | 1018.7 |
| 20260507001328 | 28 | 283 | 0.0 | 9.7 | 0.00 | 2.36 | 1.19 | 77 | 1018.6 |
| 20260506235827 | 27 | 273 | 1.6 | 8.0 | 0.00 | 2.36 | 1.19 | 80 | 1018.7 |
| 20260506235019 | 28 | 274 | 1.6 | 6.4 | 0.00 | 2.36 | 1.19 | 77 | 1018.8 |
| 20260506233520 | 29 | 306 | 3.2 | 4.8 | 0.00 | 2.36 | 1.19 | 74 | 1019.4 |
| 20260506232031 | 28 | 255 | 1.6 | 6.4 | 0.00 | 2.36 | 1.19 | 77 | 1019.2 |
| 20260506225828 | 27 | 278 | 1.6 | 6.4 | 0.00 | 2.36 | 1.19 | 81 | 1019.6 |
| 20260506224328 | 27 | 280 | 3.2 | 6.4 | 0.00 | 2.36 | 1.19 | 80 | 1019.6 |
| 20260506223532 | 28 | 323 | 0.0 | 9.7 | 0.00 | 2.36 | 1.19 | 80 | 1019.8 |
| 20260506222019 | 28 | 273 | 3.2 | 9.7 | 0.00 | 2.36 | 1.19 | 80 | 1019.7 |
| 20260506215827 | 28 | 283 | 0.0 | 6.4 | 0.00 | 2.36 | 1.19 | 79 | 1019.7 |
| 20260506214328 | 27 | 278 | 3.2 | 8.0 | 0.00 | 2.36 | 1.19 | 79 | 1019.5 |
| 20260506214211 | 28 | 272 | 1.6 | 6.4 | 0.00 | 2.36 | 1.19 | 76 | 1019.9 |
| 20260506211328 | 27 | 273 | 1.6 | 8.0 | 0.00 | 2.36 | 1.19 | 78 | 1020.1 |
| 20260506210525 | 28 | 260 | 1.6 | 4.8 | 0.00 | 2.36 | 1.19 | 77 | 1020.3 |
| 20260506205730 | 27 | 290 | 3.2 | 8.0 | 0.00 | 2.36 | 1.19 | 77 | 1020.2 |
| 20260506202829 | 27 | 306 | 0.0 | 6.4 | 0.00 | 2.36 | 1.19 | 82 | 1020.4 |
| 20260506202035 | 27 | 266 | 1.6 | 4.8 | 0.00 | 2.36 | 1.19 | 80 | 1020.3 |
| 20260506200530 | 27 | 262 | 0.0 | 4.8 | 0.00 | 2.36 | 1.19 | 79 | 1020.3 |
| 20260506195019 | 26 | 269 | 0.0 | 3.2 | 0.00 | 2.36 | 1.19 | 83 | 1020.0 |
| 20260506192827 | 26 | 332 | 0.0 | 4.8 | 0.00 | 2.36 | 1.19 | 85 | 1020.0 |
| 20260506191328 | 25 | 278 | 1.6 | 3.2 | 0.00 | 2.36 | 1.19 | 85 | 1020.0 |
| 20260506190533 | 26 | 297 | 0.0 | 3.2 | 0.00 | 2.36 | 1.19 | 82 | 1020.1 |
| 20260506184329 | 25 | 269 | 0.0 | 3.2 | 0.00 | 2.36 | 1.19 | 83 | 1020.2 |
| 20260506182828 | 24 | 269 | 0.0 | 3.2 | 0.00 | 2.36 | 1.19 | 83 | 1020.0 |
| 20260506181328 | 23 | 269 | 0.0 | 1.6 | 0.00 | 2.36 | 1.19 | 88 | 1020.2 |
| 20260506175830 | 22 | 230 | 0.0 | 3.2 | 0.00 | 2.36 | 1.19 | 93 | 1020.4 |
| 20260506174328 | 21 | 229 | 0.0 | 3.2 | 0.00 | 2.36 | 1.19 | 96 | 1020.1 |
| 20260506172828 | 21 | 166 | 0.0 | 4.8 | 0.00 | 2.36 | 1.19 | 97 | 1019.6 |
| 20260506172028 | 21 | 173 | 0.0 | 4.8 | 0.00 | 2.36 | 1.19 | 97 | 1019.6 |
| 20260506165828 | 20 | 269 | 0.0 | 4.8 | 0.00 | 2.36 | 1.19 | 99 | 1019.1 |
| 20260506165028 | 20 | 268 | 0.0 | 4.8 | 0.00 | 2.36 | 1.19 | 99 | 1019.1 |
| 20260506162829 | 20 | 251 | 0.0 | 4.8 | 0.00 | 2.36 | 1.19 | 99 | 1018.9 |
| 20260506162022 | 20 | 201 | 0.0 | 4.8 | 0.00 | 2.36 | 1.19 | 99 | 1018.6 |
| 20260506160522 | 20 | 237 | 0.0 | 4.8 | 0.00 | 2.36 | 1.19 | 99 | 1018.6 |
| 20260506154328 | 20 | 180 | 0.0 | 4.8 | 0.00 | 2.36 | 1.19 | 99 | 1018.4 |
| 20260506152828 | 20 | 256 | 1.6 | 6.4 | 0.00 | 2.36 | 1.19 | 99 | 1018.5 |
| 20260506151328 | 20 | 156 | 0.0 | 4.8 | 0.00 | 2.36 | 1.19 | 99 | 1018.1 |
| 20260506145827 | 20 | 337 | 0.0 | 6.4 | 0.00 | 2.36 | 1.19 | 99 | 1018.0 |
| 20260506145034 | 20 | 254 | 0.0 | 4.8 | 0.00 | 2.36 | 1.19 | 99 | 1018.4 |
| 20260506142828 | 20 | 306 | 0.0 | 4.8 | 0.00 | 2.36 | 1.19 | 99 | 1018.4 |
| 20260506141329 | 20 | 174 | 0.0 | 4.8 | 0.00 | 2.36 | 1.19 | 99 | 1018.4 |
| 20260506135828 | 20 | 60 | 0.0 | 3.2 | 0.08 | 2.31 | 1.19 | 99 | 1018.5 |
| 20260506134328 | 20 | 209 | 0.0 | 3.2 | 0.53 | 2.31 | 1.19 | 99 | 1018.3 |
| 20260506132827 | 21 | 230 | 0.0 | 4.8 | 0.84 | 2.31 | 1.19 | 99 | 1018.2 |
| 20260506131328 | 21 | 202 | 0.0 | 6.4 | 1.14 | 2.31 | 1.17 | 99 | 1018.3 |
| 20260506125828 | 21 | 335 | 0.0 | 4.8 | 1.07 | 1.22 | 1.12 | 99 | 1018.3 |
| 20260506124328 | 21 | 167 | 0.0 | 3.2 | 0.61 | 1.22 | 0.66 | 99 | 1018.4 |
| 20260506122828 | 21 | 213 | 0.0 | 3.2 | 0.30 | 1.22 | 0.36 | 99 | 1018.8 |
| 20260506121329 | 21 | 188 | 1.6 | 3.2 | 0.00 | 1.22 | 0.05 | 99 | 1018.5 |
| 20260506115828 | 21 | 310 | 0.0 | 6.4 | 0.00 | 1.22 | 0.05 | 99 | 1018.7 |